This is the latest recevied weather packets stored in our database for station/object KG7MRB. If no packets are shown the sender has not sent any weather packets the latest 10 day(s).
| Time | Temp. | Humidity | Pressure | Rain* | Wind** | Luminosity | Snow |
|---|---|---|---|---|---|---|---|
| 1777942816 | 25.56° C | 44% | 1027 hPa | 0 mm | - | 58 W/m² | - |
| 1777942512 | 25.56° C | 44% | 1027.1 hPa | 0 mm | - | 80 W/m² | - |
| 1777942210 | 25.56° C | 44% | 1027 hPa | 0 mm | - | 86 W/m² | - |
| 1777941906 | 26.11° C | 44% | 1027 hPa | 0 mm | - | 260 W/m² | - |
| 1777941603 | 26.11° C | 45% | 1026.9 hPa | 0 mm | - | 245 W/m² | - |
| 1777941300 | 25.56° C | 46% | 1026.9 hPa | 0 mm | - | 225 W/m² | - |
| 1777940997 | 26.11° C | 45% | 1027.1 hPa | 0 mm | - | 212 W/m² | - |
| 1777940692 | 26.11° C | 46% | 1027.1 hPa | 0 mm | - | 60 W/m² | - |
| 1777940391 | 26.11° C | 45% | 1027 hPa | 0 mm | - | 61 W/m² | - |
| 1777940088 | 26.11° C | 45% | 1027.1 hPa | 0 mm | - | 56 W/m² | - |
| 1777939785 | 26.11° C | 44% | 1027.1 hPa | 0 mm | - | 54 W/m² | - |
| 1777939483 | 26.11° C | 45% | 1027 hPa | 0 mm | - | 343 W/m² | - |
| 1777939180 | 26.67° C | 45% | 1027 hPa | 0 mm | - | 179 W/m² | - |
| 1777938877 | 26.67° C | 44% | 1027.2 hPa | 0 mm | - | 389 W/m² | - |
| 1777938573 | 26.67° C | 45% | 1027.1 hPa | 0 mm | - | 402 W/m² | - |
| 1777938271 | 27.22° C | 45% | 1027 hPa | 0 mm | - | 395 W/m² | - |
| 1777937967 | 27.22° C | 45% | 1027.1 hPa | 0 mm | - | 425 W/m² | - |
| 1777937663 | 27.78° C | 44% | 1027.2 hPa | 0 mm | - | 409 W/m² | - |
| 1777937360 | 27.78° C | 43% | 1027.2 hPa | 0 mm | - | 415 W/m² | - |
| 1777937057 | 27.78° C | 44% | 1027.1 hPa | 0 mm | - | 455 W/m² | - |
| 1777936754 | 27.78° C | 42% | 1027 hPa | 0 mm | - | 470 W/m² | - |
| 1777936450 | 27.78° C | 41% | 1027 hPa | 0 mm | - | 481 W/m² | - |
| 1777936147 | 27.22° C | 44% | 1027.1 hPa | 0 mm | - | 494 W/m² | - |
| 1777935844 | 27.78° C | 42% | 1027.1 hPa | 0 mm | - | 505 W/m² | - |
| 1777935543 | 27.78° C | 43% | 1027.2 hPa | 0 mm | - | 515 W/m² | - |
* Rain latest hour (hover to see other rain measurements)
** Current wind speed in m/s (hover to see current wind gust speed)